Location: ASU Dark Sky Observatory
(36.2504°N, 81.4125°W)
Time: 12:29:41
(UTC-04:00)

Daily predictions for brighter satellites

Satellite Brightness Start Highest point End
(mag) Time Altitude Azimuth Time Altitude Azimuth Time Altitude Azimuth
Cosmos 2154 Rocket 4.0 20:26:13 10° S 20:32:27 76° E 20:38:40 10° N
Resurs 01 Rocket 2.8 20:36:04 10° SE 20:39:43 26° ENE 20:43:22 10° NNE
ERS-2 2.7 20:37:16 10° SE 20:40:41 38° ENE 20:44:07 10° N
Cosmos 1151 Rocket 3.7 20:37:18 10° SSE 20:41:07 33° E 20:44:57 10° NNE
YAOGAN 6 3.6 20:38:01 10° SE 20:41:08 28° ENE 20:44:18 10° NNE
Cosmos 1980 3.7 20:38:55 10° SSW 20:44:33 71° ESE 20:50:13 10° NNE
Cosmos 1666 Rocket 3.6 20:42:53 10° N 20:47:22 89° WNW 20:51:48 10° S
Thor Agena Rocket 3.6 20:43:48 10° NNE 20:49:01 62° ESE 20:54:14 10° S
Sich 1 3.2 20:45:36 10° N 20:49:52 74° W 20:54:07 10° S
Meteor 2-3 Rocket 3.8 20:45:04 10° N 20:50:39 63° E 20:56:15 10° SSE
Meteor 2-21 Rocket 4.5 20:45:26 10° S 20:51:33 89° E 20:57:46 10° N
Cosmos 962 Rocket 4.4 20:46:14 10° S 20:52:19 75° E 20:58:29 10° N
Cosmos 1933 Rocket 4.3 20:49:20 10° NNE 20:53:19 33° ENE 20:57:09 10° SE
Cosmos 1455 2.2 20:49:37 10° S 20:53:26 88° W 20:57:19 10° N
Cosmos 1844 Rocket 3.5 20:48:15 10° NNW 20:53:44 52° WSW 20:59:10 10° S
SJ-6B 2.9 20:50:14 10° S 20:54:15 84° WSW 20:58:13 10° NNW
Cosmos 2341 Rocket 4.0 20:54:07 10° S 21:00:29 84° E 21:06:50 10° N
Cosmos 2218 Rocket 4.4 20:54:35 10° SSE 21:00:32 44° E 21:06:32 10° NNE
Cosmos 1869 4.0 20:57:19 10° SSE 21:00:55 32° E 21:04:31 10° NNE
Cosmos 2333 Rocket 3.3 20:56:51 10° SW 21:02:20 49° WNW 21:07:48 10° N
Cosmos 2219 Rocket 3.8 20:59:21 10° SW 21:04:38 40° WNW 21:09:56 10° N
Resurs 1-3 3.8 21:01:15 10° SSE 21:05:30 51° ENE 21:09:46 10° N
Cosmos 1892 3.6 21:03:13 10° NNW 21:07:00 50° W 21:10:43 10° S
Cosmos 2366 rocket 4.3 21:01:54 10° SSE 21:07:45 45° E 21:13:40 10° NNE
ATLAS CENTAUR R/B 4.0 21:05:32 10° WSW 21:08:25 21° NW 21:11:24 10° N
CZ-2D R/B 4.1 21:06:22 10° S 21:10:04 50° W 21:13:47 10° NNW
Cosmos 2237 Rocket 2.4 21:05:28 10° SSW 21:11:04 74° WNW 21:16:43 10° NNE
Cosmos 1939 Rocket 2.7 21:08:36 10° SSE 21:12:24 71° ENE 21:16:19 10° N
SL-8 Rocket 4.0 21:08:45 10° S 21:15:00 71° E 21:21:15 10° N
Genesis I 3.8 21:11:43 10° NW 21:15:44 56° WSW 21:19:12 13° SSE
Cosmos 1633 Rocket 4.0 21:12:24 10° NNW 21:16:36 48° W 21:20:47 10° SSW
USA 186 1.3 21:16:31 20° S 21:17:53 61° W 21:20:10 10° NNW
Cosmos 407 Rocket 4.3 21:17:22 10° N 21:22:00 33° ENE 21:24:14 23° ESE
Cosmos 2278 Rocket 2.2 21:18:41 10° NNW 21:24:24 89° ENE 21:29:00 16° SSE
NOAA 11 4.4 21:21:27 18° SE 21:25:29 55° ENE 21:30:51 10° N
Cosmos 1515 Rocket 4.1 21:23:12 10° SSW 21:27:37 62° W 21:32:03 10° N
Cosmos 1371 Rocket 4.3 21:29:28 10° SSW 21:34:46 73° WNW 21:40:08 10° NNE
OAO 3 Copernicus 4.2 21:30:13 10° WSW 21:35:14 71° S 21:37:49 28° E
Cosmos 405 Rocket 3.4 21:35:30 34° E 21:35:30 34° E 21:39:02 10° NNE
ASTRO E2 3.2 21:32:32 10° WSW 21:36:18 40° S 21:37:01 36° SSE
Cosmos 1825 2.1 21:33:54 10° N 21:37:42 82° W 21:39:47 25° S
USA 81 4.5 21:35:42 10° NNE 21:40:41 42° E 21:42:17 33° ESE
Hubble Space Telescope 3.2 21:38:49 10° SSW 21:39:00 11° S 21:39:00 11° S
H-2A R/B 3.0 21:43:19 27° E 21:44:06 28° ENE 21:48:17 10° NNE
Cosmos 864 Rocket 4.4 21:38:52 10° S 21:44:59 88° E 21:51:09 10° N
CZ-3B R/B 4.4 21:44:02 10° NNW 21:44:31 16° N 21:44:31 16° N
CZ-4C R/B 2.4 21:44:58 35° SE 21:45:44 37° ESE 21:50:48 10° NE
OAO 3 Rocket 4.3 21:43:39 10° SSW 21:46:41 25° S 21:46:41 25° S
Meteor 2-10 Rocket 3.8 21:46:40 10° S 21:52:23 86° W 21:58:15 10° N
ARGOS 3.5 21:51:35 37° ESE 21:53:02 46° ENE 21:58:08 10° N
Cosmos 2056 Rocket 4.1 21:50:34 10° SSW 21:55:54 59° WNW 22:01:14 10° N
Cosmos 1452 Rocket 3.6 21:55:09 40° SSE 21:56:32 51° ESE 22:01:36 10° NNE
Cosmos 1862 3.6 21:53:15 10° N 21:56:57 48° ENE 21:56:57 48° ENE
Sakura Rocket 4.3 21:54:54 10° WSW 21:58:50 25° SSW 21:58:50 25° SSW
Cosmos 1408 4.2 21:56:39 10° NNW 21:59:58 32° W 22:02:17 16° SSW
SL-16 R/B 2.5 21:57:57 10° SSW 22:03:35 68° WNW 22:09:14 10° NNE
Cosmos 1140 Rocket 3.8 22:03:06 10° N 22:08:04 45° ENE 22:08:24 45° E
Gblst 52 Del rocket 4.0 22:06:57 10° SW 22:12:37 84° SE 22:18:07 10° NE
ATLAS 2AS CENTAUR R/B 4.2 22:06:33 10° NW 22:13:12 33° WSW 22:18:33 13° SSW
Cosmos 2098 Rocket 4.4 22:11:22 10° SSW 22:15:35 35° W 22:19:03 10° NNW
Resurs 01 Rocket 3.6 22:12:35 11° SSW 22:16:05 25° W 22:19:44 10° NW
Cosmos 1190 Rocket 4.1 22:11:15 10° NNW 22:16:30 70° WSW 22:17:56 47° S
Cosmos 2344 3.4 22:11:04 10° SSW 22:18:45 84° ESE 22:26:51 10° NNE
Cosmos 405 4.0 22:16:40 10° NNW 22:19:45 44° W 22:19:45 44° W
Cosmos 1821 Rocket 3.9 22:26:24 58° SE 22:27:28 68° E 22:33:43 10° NNE
Cosmos 1954 Rocket 3.9 22:22:41 10° NNW 22:27:53 73° ENE 22:27:53 73° ENE
MetOp-A 4.1 22:29:28 62° SSW 22:30:21 77° WSW 22:35:43 10° NNW
Cosmos 1727 Rocket 4.4 22:24:40 10° NNW 22:30:42 57° W 22:33:38 30° SSW
Cosmos 1603 3.9 22:31:54 55° ENE 22:31:54 55° ENE 22:36:33 10° NNE
Helios 1A 4.2 22:37:12 36° NNE 22:37:12 36° NNE 22:39:52 10° N
Terra 3.6 22:40:06 20° NE 22:40:06 20° NE 22:42:18 10° NNE
Cosmos 2297 4.1 22:34:53 10° NNW 22:40:25 54° WSW 22:41:21 49° SW
Cosmos 2369 Rocket 3.4 22:36:17 10° N 22:40:37 28° NE 22:40:37 28° NE
Cosmos 1707 Rocket 4.4 22:42:06 46° W 22:42:10 46° W 22:46:20 10° N
NOSS 3-4 (A) 4.1 22:37:15 10° NW 22:44:22 65° WSW 22:46:15 50° S
NOSS 3-4 (C) 4.0 22:37:21 10° NW 22:44:28 65° WSW 22:46:20 50° S
Cosmos 614 Rocket 4.1 22:42:35 10° NNW 22:47:28 70° WNW 22:47:28 70° WNW
USA 267 4.2 22:42:49 10° NE 22:46:13 32° ENE 22:46:13 32° ENE
Cosmos 2123 Rocket 4.3 22:43:19 10° N 22:48:49 51° ENE 22:48:49 51° ENE
ERS-1 Rocket 3.2 22:49:53 68° WNW 22:49:53 68° WNW 22:54:31 10° NNW
ATLAS 5 CENTAUR R/B 3.4 22:53:32 10° NNW 22:58:49 34° NE 22:58:49 34° NE
Cosmos 1535 Rocket 4.4 22:59:32 76° SW 22:59:56 81° W 23:06:21 10° N
Cosmos 1241 Rocket 4.5 23:01:05 10° NNW 23:06:59 78° N 23:06:59 78° N
GEOS 3 Rocket 4.2 23:04:00 10° NNE 23:08:07 52° N 23:08:07 52° N
SPOT 5 4.2 23:14:46 34° NNW 23:14:46 34° NNW 23:17:21 10° NNW
SPOT 1/Viking Rocket 4.3 23:16:47 50° NW 23:16:47 50° NW 23:20:42 10° NNW
Lacrosse 5 3.4 23:11:28 10° NNW 23:14:47 31° N 23:14:47 31° N
Cosmos 1605 Rocket 4.3 23:19:14 61° NNE 23:19:14 61° NNE 23:24:26 10° N
ATLAS 2A CENTAUR R/B 3.9 23:07:30 10° WSW 23:22:31 49° SSW 23:22:31 49° SSW
H-2A R/B 3.6 23:23:56 28° W 23:23:56 28° W 23:27:42 10° NW
CZ-4C R/B 3.9 23:29:48 10° WSW 23:34:16 28° NW 23:39:16 10° NNE
Cosmos 1943 Rocket 3.4 23:36:47 10° NNW 23:40:03 36° N 23:40:03 36° N
BREEZE-M DEB (TANK) 4.1 23:24:02 10° NW 23:44:19 82° NNE 23:44:19 82° NNE
